Retour au catalogue

TURKSAT 2A

ActifCommunicationsGEO
NORAD 26666·PAYLOAD·🇹🇷 Turkey

Lancé Jan 10, 2001 depuis Guiana Space Centre

Loading…

TLE

FraisSource: Space-Track

Époque: Sep 14, 2026, 13:58 UTC

1 26666U 01002A   26257.58212104 -.00000070  00000-0  00000-0 0  9992
2 26666   9.1738  60.5655 0006119 329.4573 208.7458  0.98207844 93168

Suivez TURKSAT 2A en temps réel avec AllMySat

Download on the App Store